Tracking 17155 objects as of 30-July-2015
HD Live streaming from Space Station

OPS 5058 (DMSP 5B F2)

Track OPS 5058 (DMSP 5B F2) now!
10-day predictions
OPS 5058 (DMSP 5B F2) is classified as:


NORAD ID: 5903
Int'l Code: 1972-018A
Perigee: 782.3 km
Apogee: 856.5 km
Inclination: 99.1 °
Period: 101.1 minutes
Semi major axis: 7190 km
RCS: 1.4687 m2 (large)
Launch date: March 24, 1972
Source: United States (US)
Your satellite tracking list
Your tracking list is empty





NASA's NSSDC Master Catalog

Two Line Element Set (TLE):
1 05903U 72018A   15211.16219758  .00000051  00000-0  42328-4 0  9993
2 05903 099.0844 248.1033 0051594 006.9437 353.2444 14.23874424324606

Source of the keplerian elements: AFSPC

N2YO: 271